Hourly Data Report for October 01, 2017

All times are specified in Local Standard Time (LST). Add 1 hour to adjust for Daylight Saving Time where and when it is observed.

FORT LIARD
NORTHWEST TERRITORIES

60°14'00.000" N
123°28'00.000" W
213.40 m
2201579
71497
WJL

Download Data

Hourly Data (October 2017)
Hourly Data Report for October 1, 2017
Temp Definition
°C
Dew Point Temp Definition
°C
Rel Hum Definition
%
Wind Dir Definition
10's deg

Wind Spd Definition
km/h
Visibility Definition
km
Stn Press Definition
kPa
Hmdx Definition


Wind Chill Definition


Weather Definition


TIME
00:00 3.5 1.9 89 3 9   99.13     LegendNANA
01:00 3.4 2.2 92 2 5   99.19     LegendNANA
02:00 3.1 2.2 94 25 3   99.28     LegendNANA
03:00 3.2 1.6 89 3 6   99.37     LegendNANA
04:00 3.1 0.9 85 4 6   99.49     LegendNANA
05:00 2.8 0.5 85 4 6   99.62     LegendNANA
06:00 2.0 -0.5 84 2 5   99.73     LegendNANA
07:00 -0.9 -2.1 91 19 3   99.84   -2 LegendNANA
08:00 -1.1 -1.8 95 8 3   99.97   -2 LegendNANA
09:00 1.7 -1.2 81 9 9   100.06     LegendNANA
10:00 4.0 -2.2 64 17 2   100.15     LegendNANA
11:00 5.1 -1.1 64 20 8   100.19     LegendNANA
12:00 6.9 -4.2 45 22 6   100.23     LegendNANA
13:00 7.3 -8.1 33 1 6   100.25     LegendNANA
14:00 8.9 -3.3 42 18 7   100.27     LegendNANA
15:00 8.2 -2.8 46 22 17   100.24     LegendNANA
16:00 8.4 -1.4 50 22 16   100.25     LegendNANA
17:00 7.9 -1.3 52 22 15   100.25     LegendNANA
18:00 6.6 -1.0 59 21 11   100.31     LegendNANA
19:00 3.3 -0.2 78 19 4   100.38     LegendNANA
20:00 0.3 -0.9 92 4 1   100.46     LegendNANA
21:00 0.3 -0.6 94 22 8   100.51     LegendNANA
22:00 -0.1 -1.2 93 22 9   100.54   -3 LegendNANA
23:00 -0.8 -1.5 95 21 9   100.57   -4 LegendNANA

Notes on Data Quality.

Legend

  • E = Estimated
  • M = Missing
  • NA = Not Available
  • ‡ = Partner data that is not subject to review by the National Climate Archives
Date modified: